"2009-06-22 00:00:00",996783,5.01,130,3.761,0.199,18.49,108.6931,21.54,22.47,28.77,0,111,13.17,22.37,92.0
"2009-06-22 00:00:30",996784,4.958,131.4,1.161,0.115,18.41,108.6952,21.54,22.48,28.73,0,111,13.17,22.37,93.4
"2009-06-22 00:01:00",996785,4.946,130.4,1.356,0.282,18.31,108.6934,21.54,22.49,29.06,0,111,13.17,22.37,92.4
"2009-06-22 00:01:30",996786,4.991,129.7,1.895,0.111,18.41,108.6956,21.54,22.5,28.98,0,111,13.17,22.37,91.7
"2009-06-22 00:02:00",996787,4.641,129.3,1.588,0.081,18.33,108.7077,21.58,22.51,29.07,0,111,13.17,22.40,91.3
"2009-06-22 00:02:30",996788,4.878,132.1,2.154,0.132,18.59,108.7209,21.61,22.53,28.89,0,111,13.16,22.44,94.1
"2009-06-22 00:03:00",996789,4.565,137.2,3.905,0.379,18.65,108.7231,21.62,22.53,28.67,0,111,13.16,22.44,99.2
"2009-06-22 00:03:30",996790,4.419,139.4,1.689,0.194,18.68,108.7228,21.61,22.56,28.37,0,111,13.16,22.44,101.4
"2009-06-22 00:04:00",996791,4.603,139.7,3.809,0.308,18.57,108.7231,21.62,22.56,28.56,0,111,13.16,22.44,101.7
"2009-06-22 00:04:30",996792,4.64,141.8,3.896,0.35,18.58,108.7417,21.66,22.59,28.46,0,111,13.16,22.49,103.8
"2009-06-22 00:05:00",996793,4.121,144.2,5.908,0.198,18.73,108.7568,21.7,22.61,28.29,0,111,13.16,22.53,106.2
"2009-06-22 00:05:30",996794,4.118,145,4.733,0.246,18.81,108.7556,21.7,22.62,27.99,0,111,13.16,22.53,107.0
"2009-06-22 00:06:00",996795,4.103,145.7,4.555,0.132,18.8,108.7579,21.7,22.65,27.86,0,111,13.16,22.53,107.7
"2009-06-22 00:06:30",996796,4.686,140.3,1.541,0.496,18.74,108.778,21.76,22.64,27.77,0,111,13.16,22.58,102.3
"2009-06-22 00:07:00",996797,5.469,138.2,1.939,0.209,18.73,108.7829,21.77,22.69,28.01,0,111,13.16,22.60,100.2
"2009-06-22 00:07:30",996798,5.201,141.2,1.923,0.193,18.73,108.7924,21.79,22.71,27.99,0,111,13.16,22.62,103.2
"2009-06-22 00:08:00",996799,5.662,141.9,1.302,0.087,18.65,108.8092,21.84,22.73,28.19,0,111,13.16,22.66,103.9
"2009-06-22 00:08:30",996800,5.712,139.7,1.266,0.104,18.61,108.8078,21.83,22.75,28.5,0,111,13.16,22.66,101.7
"2009-06-22 00:09:00",996801,5.427,139.8,1.65,0.272,18.75,108.8059,21.83,22.79,28.42,0,111,13.16,22.66,101.8
"2009-06-22 00:09:30",996802,4.738,143.3,2.811,0.17,18.89,108.82,21.86,22.8,27.88,0,111,13.16,22.69,105.3
"2009-06-22 00:10:00",996803,5.199,143.2,1.296,0.22,18.83,108.8347,21.9,22.84,27.82,0,111,13.16,22.73,105.2
"2009-06-22 00:10:30",996804,4.985,144.4,2.784,0.166,18.87,108.8329,21.9,22.85,27.71,0,111,13.16,22.73,106.4
"2009-06-22 00:11:00",996805,4.706,145.5,3.598,0.24,18.83,108.8378,21.91,22.86,27.67,0,111,13.16,22.74,107.5
"2009-06-22 00:11:30",996806,4.508,153.3,3.325,0.15,18.91,108.8529,21.95,22.89,27.6,0,111,13.16,22.78,115.3
"2009-06-22 00:12:00",996807,4.312,159.8,1.701,0.142,19.01,108.8648,21.98,22.93,27.22,0,111,13.16,22.81,121.8
"2009-06-22 00:12:30",996808,4.416,161.7,2.157,0.124,18.98,108.865,21.98,22.93,27.06,0,111,13.15,22.81,123.7
"2009-06-22 00:13:00",996809,4.575,152.9,3.787,0.162,18.79,108.8777,22.01,22.95,27.31,0,111,13.16,22.84,114.9
"2009-06-22 00:13:30",996810,4.659,145.9,5.021,0.227,18.76,108.8971,22.06,22.96,27.43,0,111,13.15,22.89,107.9
"2009-06-22 00:14:00",996811,4.773,152.8,2.732,0.125,18.87,108.8979,22.06,23,27.29,0,111,13.15,22.89,114.8
"2009-06-22 00:14:30",996812,4.594,145.7,2.255,0.298,18.86,108.9054,22.08,23.02,27.33,0,111,13.16,22.91,107.7
"2009-06-22 00:15:00",996813,4.517,145.8,4.997,0.179,18.86,108.9279,22.14,23.05,27.3,0,111,13.15,22.97,107.8
"2009-06-22 00:15:30",996814,4.587,144.1,2.677,0.336,18.8,108.9316,22.15,23.07,27.41,0,111,13.15,22.98,106.1
"2009-06-22 00:16:00",996815,5.41,141.2,0.963,0.083,18.48,108.9352,22.16,23.09,28.01,0,111,13.16,22.99,103.2
"2009-06-22 00:16:30",996816,5.257,140.5,1.064,0.096,18.57,108.9524,22.2,23.13,28.29,0,111,13.16,23.03,102.5
"2009-06-22 00:17:00",996817,4.868,143.6,1.199,0.128,18.75,108.9653,22.24,23.16,28.04,0,111,13.16,23.07,105.6
"2009-06-22 00:17:30",996818,4.821,145.6,0.873,0.086,18.97,108.9653,22.24,23.18,27.75,0,111,13.16,23.07,107.6
"2009-06-22 00:18:00",996819,4.956,144.6,1.206,0.171,19,108.9656,22.24,23.19,27.35,0,111,13.16,23.07,106.6
"2009-06-22 00:18:30",996820,4.928,146.3,2.639,0.153,18.94,108.9779,22.27,23.21,27.45,0,111,13.16,23.10,108.3
"2009-06-22 00:19:00",996821,5.19,138.4,2.189,0.296,18.82,108.9894,22.3,23.22,27.64,0,111,13.16,23.13,100.4
"2009-06-22 00:19:30",996822,5.151,135.4,2.874,0.169,18.86,108.9987,22.32,23.25,27.73,0,111,13.16,23.15,97.4
"2009-06-22 00:20:00",996823,4.95,139.4,3.286,0.221,18.95,108.999,22.32,23.26,27.55,0,111,13.16,23.15,101.4
"2009-06-22 00:20:30",996824,4.524,144.5,3.431,0.201,19.01,108.999,22.32,23.28,27.39,0,111,13.16,23.15,106.5
"2009-06-22 00:21:00",996825,4.311,143.5,5.958,0.139,19.02,109.0012,22.33,23.3,27.22,0,111,13.16,23.16,105.5
"2009-06-22 00:21:30",996826,4.502,142.5,3.88,0.146,19.06,109.0108,22.35,23.31,27.11,0,111,13.16,23.18,104.5
"2009-06-22 00:22:00",996827,3.846,149.8,3.111,0.207,19.15,109.0296,22.4,23.32,26.94,0,111,13.16,23.23,111.8
"2009-06-22 00:22:30",996828,4.05,154.2,2.459,0.292,19.18,109.0327,22.41,23.35,26.74,0,111,13.16,23.24,116.2
"2009-06-22 00:23:00",996829,4.329,156.6,1.514,0.106,19.26,109.0327,22.41,23.35,26.42,0,111,13.16,23.24,118.6
"2009-06-22 00:23:30",996830,4.436,150,2.222,0.301,19.12,109.0439,22.44,23.38,26.49,0,111,13.16,23.27,112.0
"2009-06-22 00:24:00",996831,4.561,146.2,2.819,0.121,19.15,109.0627,22.49,23.38,26.51,0,111,13.16,23.32,108.2
"2009-06-22 00:24:30",996832,4.413,147.2,3.738,0.223,19.21,109.0664,22.5,23.4,26.52,0,111,13.16,23.33,109.2
"2009-06-22 00:25:00",996833,3.997,145,3.251,0.156,19.16,109.07,22.51,23.42,26.52,0,111,13.16,23.34,107.0
"2009-06-22 00:25:30",996834,4.014,146.2,7.101,0.384,19.14,109.088,22.55,23.46,26.59,0,111,13.16,23.38,108.2
"2009-06-22 00:26:00",996835,3.513,153.6,2.415,0.169,19.29,109.1001,22.58,23.49,26.35,0,111.1,13.16,23.41,115.6
"2009-06-22 00:26:30",996836,3.837,144.6,4.623,0.318,19.05,109.1029,22.59,23.51,26.29,0,111,13.16,23.42,106.6
"2009-06-22 00:27:00",996837,4.076,142.8,4.804,0.251,19.06,109.1155,22.62,23.54,26.63,0,111,13.16,23.45,104.8
"2009-06-22 00:27:30",996838,4.172,134.9,4.566,0.162,19.01,109.1338,22.67,23.57,26.53,0,111,13.16,23.50,96.9
"2009-06-22 00:28:00",996839,4.528,125.1,4.389,0.174,18.78,109.1366,22.68,23.6,27.02,0,111.1,13.15,23.51,87.1
"2009-06-22 00:28:30",996840,4.94,120.9,1.599,0.151,18.61,109.1582,22.73,23.63,27.54,0,111.1,13.15,23.56,82.9
"2009-06-22 00:29:00",996841,4.917,117.4,2.309,0.098,18.52,109.1675,22.76,23.63,27.71,0,111.1,13.15,23.59,79.4
"2009-06-22 00:29:30",996842,4.65,111.7,1.252,0.124,18.42,109.1675,22.76,23.67,27.69,0,111.1,13.15,23.59,73.7
"2009-06-22 00:30:00",996843,4.387,106.3,2.178,0.083,18.43,109.1675,22.76,23.67,27.91,0,111.1,13.15,23.59,68.3
"2009-06-22 00:30:30",996844,4.273,99.5,2.496,0.299,18.45,109.1675,22.76,23.68,28.22,0,111.1,13.15,23.59,61.5
"2009-06-22 00:31:00",996845,4.444,102.2,1.311,0.083,18.49,109.1667,22.75,23.69,28.07,0,111.1,13.15,23.59,64.2
"2009-06-22 00:31:30",996846,4.554,99.8,1.052,0.08,18.44,109.1585,22.73,23.71,27.97,0,111.1,13.15,23.56,61.8
"2009-06-22 00:32:00",996847,4.471,91,2.203,0.126,18.36,109.1425,22.69,23.69,28.27,0,111.1,13.15,23.52,53.0
"2009-06-22 00:32:30",996848,3.837,89,2.669,0.263,18.47,109.1363,22.68,23.71,29.16,0,111.1,13.15,23.51,51.0
"2009-06-22 00:33:00",996849,3.733,90.5,6.382,0.367,18.49,109.1338,22.67,23.7,29.32,0,111.1,13.15,23.50,52.5
"2009-06-22 00:33:30",996850,4.017,89.6,3.266,0.233,18.75,109.1335,22.67,23.68,29.13,0,111.1,13.15,23.50,51.6
"2009-06-22 00:34:00",996851,4.153,89.1,3.148,0.196,18.94,109.1282,22.66,23.7,28.16,0,111.1,13.15,23.49,51.1
"2009-06-22 00:34:30",996852,4.553,82,2.56,0.257,18.93,109.1133,22.62,23.67,28.39,0,111.1,13.16,23.45,44.0
"2009-06-22 00:35:00",996853,3.969,79.05,3.296,0.303,18.74,109.1032,22.59,23.67,29.7,0,111.1,13.16,23.42,41.1
"2009-06-22 00:35:30",996854,4.439,65.5,5.722,0.317,18.68,109.1001,22.58,23.65,30.94,0,111.1,13.16,23.41,27.5
"2009-06-22 00:36:00",996855,4.188,73.29,2.378,0.224,18.75,109.099,22.58,23.63,30.96,0,111.1,13.16,23.41,35.3
"2009-06-22 00:36:30",996856,3.929,69.14,3.954,0.227,18.76,109.0816,22.54,23.61,31.04,0,111.1,13.16,23.37,31.1
"2009-06-22 00:37:00",996857,3.625,69.15,4.906,0.214,18.78,109.0672,22.5,23.6,30.72,0,111,13.16,23.33,31.2
"2009-06-22 00:37:30",996858,3.745,75.16,6.177,0.232,18.79,109.0661,22.5,23.58,30.88,0,111.1,13.16,23.33,37.2
"2009-06-22 00:38:00",996859,3.738,74.95,3.938,0.243,18.81,109.0518,22.46,23.55,31.52,0,111,13.16,23.29,36.9
"2009-06-22 00:38:30",996860,4.215,62.17,6.367,0.236,18.95,109.0327,22.41,23.54,32.17,0,111.1,13.16,23.24,24.2
"2009-06-22 00:39:00",996861,4.012,66.87,4.928,0.41,19.03,109.0304,22.4,23.5,31.9,0,111.1,13.16,23.23,28.9
"2009-06-22 00:39:30",996862,3.544,68.08,6.986,0.418,19.08,109.0038,22.34,23.48,31.41,0,111.1,13.16,23.17,30.1
"2009-06-22 00:40:00",996863,4.235,83.6,3.094,0.506,19.03,108.9987,22.32,23.45,30.64,0,111,13.16,23.15,45.6
"2009-06-22 00:40:30",996864,3.075,73.81,11.73,0.351,19.04,108.9818,22.28,23.43,30.61,0,111.1,13.16,23.11,35.8
"2009-06-22 00:41:00",996865,3.37,75.21,4.996,0.222,19.14,108.9653,22.24,23.4,31.49,0,111.1,13.16,23.07,37.2
"2009-06-22 00:41:30",996866,3.738,77.85,4.933,0.483,19.23,108.9613,22.23,23.36,32.12,0,111,13.16,23.06,39.8
"2009-06-22 00:42:00",996867,4.674,86.7,3.275,0.437,19.36,108.9349,22.16,23.32,30.58,0,111,13.16,22.99,48.7
"2009-06-22 00:42:30",996868,4.499,88.1,5.516,0.586,19.33,108.9307,22.15,23.3,29.67,0,111,13.16,22.98,50.1
"2009-06-22 00:43:00",996869,3.94,92.9,5.535,0.253,19.24,108.9049,22.08,23.26,32.14,0,111.1,13.16,22.91,54.9
"2009-06-22 00:43:30",996870,4.035,99.8,6.444,0.332,19.21,108.8909,22.05,23.24,33.1,0,111,13.16,22.87,61.8
"2009-06-22 00:44:00",996871,3.804,117.4,6.16,0.306,19.22,108.865,21.98,23.19,32.47,0,111,13.16,22.81,79.4
"2009-06-22 00:44:30",996872,3.773,123.6,4.317,0.174,19.21,108.8502,21.94,23.14,33.13,0,111,13.16,22.77,85.6
"2009-06-22 00:45:00",996873,4.328,122.8,2.555,0.253,19.18,108.8317,21.89,23.09,33,0,111,13.16,22.72,84.8
"2009-06-22 00:45:30",996874,4.52,112.4,5.552,0.371,19.26,108.8069,21.83,23.05,32.48,0,111,13.16,22.66,74.4
"2009-06-22 00:46:00",996875,4.712,105,3.409,0.651,19.18,108.8012,21.82,22.99,31.26,0,111,13.16,22.64,67.0
"2009-06-22 00:46:30",996876,5.625,113.2,3.731,0.144,19.26,108.7843,21.77,22.94,30.34,0,111,13.15,22.60,75.2
"2009-06-22 00:47:00",996877,5.97,115.4,0.538,0.036,19.34,108.7608,21.71,22.9,30.32,0,111,13.16,22.54,77.4
"2009-06-22 00:47:30",996878,6.065,113.6,0.897,0.102,19.32,108.7417,21.66,22.85,30.47,0,111,13.16,22.49,75.6
"2009-06-22 00:48:00",996879,6.227,113.5,1.237,0.103,19.14,108.7195,21.61,22.79,30.87,0,111,13.16,22.43,75.5
"2009-06-22 00:48:30",996880,6.203,108.1,3.248,0.091,19.07,108.6908,21.53,22.74,31.38,0,111,13.16,22.36,70.1
"2009-06-22 00:49:00",996881,6.003,106.6,1.1,0.191,18.96,108.6756,21.49,22.7,32.23,0,111,13.16,22.32,68.6
"2009-06-22 00:49:30",996882,5.894,107.6,1.484,0.216,18.87,108.6579,21.45,22.65,32.8,0,111,13.16,22.27,69.6
"2009-06-22 00:50:00",996883,5.602,109,3.506,0.219,18.7,108.6376,21.4,22.6,33.51,0,111,13.16,22.22,71.0
"2009-06-22 00:50:30",996884,5.902,111.7,3.451,0.274,18.66,108.6292,21.37,22.56,34.08,0,111,13.16,22.20,73.7
"2009-06-22 00:51:00",996885,6.376,109.9,2.256,0.146,18.64,108.6056,21.31,22.53,34.62,0,111,13.16,22.14,71.9
"2009-06-22 00:51:30",996886,6.548,112.3,2.274,0.264,18.47,108.5969,21.29,22.48,36.34,0,111,13.17,22.12,74.3
"2009-06-22 00:52:00",996887,6.019,113.8,2.168,0.345,18.46,108.5699,21.22,22.45,36.75,0,111,13.17,22.05,75.8
"2009-06-22 00:52:30",996888,6.813,111.9,2.881,0.252,18.49,108.5618,21.2,22.4,36.97,0,111,13.17,22.03,73.9
"2009-06-22 00:53:00",996889,6.666,108.3,2.848,0.294,18.46,108.5365,21.14,22.38,37.98,0,111,13.17,21.96,70.3
"2009-06-22 00:53:30",996890,6.502,108.1,3.516,0.179,18.53,108.5275,21.11,22.32,37.5,0,111,13.17,21.94,70.1
"2009-06-22 00:54:00",996891,6.536,105.4,1.626,0.152,18.5,108.4999,21.04,22.28,37.45,0,111,13.17,21.87,67.4
"2009-06-22 00:54:30",996892,6.073,103.4,3.208,0.305,18.43,108.4926,21.02,22.26,39.14,0,111,13.17,21.85,65.4
"2009-06-22 00:55:00",996893,6.567,106.8,1.154,0.271,18.47,108.473,20.97,22.2,38.55,0,111,13.17,21.80,68.8
"2009-06-22 00:55:30",996894,6.225,104.5,1.91,0.289,18.4,108.4626,20.95,22.15,39.15,0,111,13.17,21.77,66.5
"2009-06-22 00:56:00",996895,5.473,101.3,2.648,0.208,18.37,108.4499,20.91,22.11,39.72,0,111,13.17,21.74,63.3
"2009-06-22 00:56:30",996896,5.883,106.6,2.555,0.293,18.29,108.4305,20.86,22.08,40.56,0,111,13.17,21.69,68.6
"2009-06-22 00:57:00",996897,6.065,107.1,2.067,0.195,18.34,108.4289,20.86,22.04,40.55,0,111,13.17,21.68,69.1
"2009-06-22 00:57:30",996898,6.727,105.3,2.096,0.281,18.36,108.4196,20.84,22.03,39.44,0,111,13.17,21.66,67.3
"2009-06-22 00:58:00",996899,6.352,97.2,5.825,0.448,18.38,108.3982,20.78,22,40.7,0,111,13.17,21.61,59.2
"2009-06-22 00:58:30",996900,6.54,99.2,3.935,0.496,18.43,108.3951,20.77,21.98,39.45,0,111,13.17,21.60,61.2
"2009-06-22 00:59:00",996901,6.083,107.4,2.222,0.182,18.55,108.3864,20.75,21.93,40.83,0,111,13.18,21.58,69.4
"2009-06-22 00:59:30",996902,6.106,98.1,4.511,0.257,18.71,108.3643,20.69,21.92,41.59,0,110.9,13.18,21.52,60.1
"2009-06-22 01:00:00",996903,5.363,92.3,2.077,0.32,18.71,108.362,20.69,21.88,43.23,0,110.9,13.18,21.51,54.3
"2009-06-22 01:00:30",996904,4.736,90.6,2.532,0.321,18.53,108.3585,20.68,21.85,44.28,0,110.9,13.18,21.50,52.6
"2009-06-22 01:01:00",996905,5.234,93,1.459,0.378,18.48,108.3381,20.63,21.83,42.37,0,110.9,13.18,21.45,55.0
"2009-06-22 01:01:30",996906,5.316,90.2,3.386,0.202,18.34,108.3314,20.61,21.79,42.01,0,110.9,13.18,21.43,52.2
"2009-06-22 01:02:00",996907,5.181,87.7,2.132,0.319,18.31,108.3332,20.61,21.78,42.93,0,110.9,13.18,21.44,49.7
"2009-06-22 01:02:30",996908,4.73,88.1,2.943,0.151,18.29,108.3223,20.59,21.76,42.52,0,110.9,13.17,21.41,50.1
"2009-06-22 01:03:00",996909,4.756,84.3,4.078,0.533,18.31,108.3084,20.55,21.73,42.95,0,110.9,13.17,21.37,46.3
"2009-06-22 01:03:30",996910,4.038,82.7,2.099,0.211,18.28,108.3068,20.55,21.7,43.86,0,110.9,13.17,21.37,44.7
"2009-06-22 01:04:00",996911,4.318,84.6,2.151,0.274,18.2,108.3101,20.56,21.69,44.2,0,110.9,13.17,21.38,46.6
"2009-06-22 01:04:30",996912,4.905,84.7,2.66,0.318,18.21,108.3113,20.56,21.66,42.19,0,110.9,13.17,21.38,46.7
"2009-06-22 01:05:00",996913,4.421,85.1,2.867,0.247,18.29,108.3112,20.56,21.65,41.28,0,110.9,13.17,21.38,47.1
"2009-06-22 01:05:30",996914,4.518,91.2,3.061,0.201,18.36,108.3114,20.56,21.64,40.74,0,110.9,13.17,21.38,53.2
"2009-06-22 01:06:00",996915,4.707,87.3,2.499,0.3,18.3,108.3036,20.54,21.61,40.54,0,110.9,13.17,21.36,49.3
"2009-06-22 01:06:30",996916,4.972,91.6,1.958,0.152,18.23,108.2938,20.51,21.6,41.13,0,110.9,13.17,21.34,53.6
"2009-06-22 01:07:00",996917,4.917,88.4,1.417,0.228,18.22,108.2877,20.5,21.59,41.53,0,110.9,13.17,21.32,50.4
"2009-06-22 01:07:30",996918,5.08,89,1.569,0.241,18.24,108.2877,20.5,21.57,40.96,0,110.9,13.17,21.32,51.0
"2009-06-22 01:08:00",996919,5.07,87,2.055,0.141,18.19,108.2877,20.5,21.56,39.85,0,110.9,13.18,21.32,49.0
"2009-06-22 01:08:30",996920,5.291,93.2,2.456,0.127,18.3,108.2877,20.5,21.57,39.16,0,110.9,13.18,21.32,55.2
"2009-06-22 01:09:00",996921,5.98,90.8,2.547,0.309,18.25,108.2886,20.5,21.54,38.48,0,110.9,13.18,21.32,52.8
"2009-06-22 01:09:30",996922,6.132,91.8,3.396,0.2,18.3,108.288,20.5,21.53,38,0,110.9,13.18,21.32,53.8
"2009-06-22 01:10:00",996923,5.253,84.9,3.438,0.272,18.39,108.2883,20.5,21.53,38.47,0,110.9,13.18,21.32,46.9
"2009-06-22 01:10:30",996924,5.301,82.7,3.617,0.128,18.39,108.288,20.5,21.52,39.31,0,110.9,13.18,21.32,44.7
"2009-06-22 01:11:00",996925,5.391,79.82,1.977,0.224,18.44,108.2892,20.5,21.53,40.55,0,110.9,13.18,21.33,41.8
"2009-06-22 01:11:30",996926,5.538,88.3,6.16,0.388,18.37,108.2913,20.51,21.52,40.76,0,110.9,13.18,21.33,50.3
"2009-06-22 01:12:00",996927,5.345,85.1,4.496,0.402,18.36,108.2913,20.51,21.53,41.23,0,110.9,13.18,21.33,47.1
"2009-06-22 01:12:30",996928,5.563,95.9,4.37,0.334,18.32,108.2904,20.5,21.52,39.37,0,110.9,13.18,21.33,57.9
"2009-06-22 01:13:00",996929,5.459,93.1,5.574,0.485,18.28,108.2922,20.51,21.52,39.19,0,110.9,13.18,21.33,55.1
"2009-06-22 01:13:30",996930,4.837,84.2,3.468,0.348,18.32,108.2941,20.51,21.52,39.73,0,110.9,13.18,21.34,46.2
"2009-06-22 01:14:00",996931,5.581,85,4.572,0.314,18.35,108.295,20.52,21.52,40.09,0,110.9,13.18,21.34,47.0
"2009-06-22 01:14:30",996932,5.084,82.6,4.274,0.324,18.33,108.2953,20.52,21.51,39.85,0,110.9,13.18,21.34,44.6
"2009-06-22 01:15:00",996933,5.046,78.62,3.44,0.252,18.3,108.2962,20.52,21.51,40.55,0,110.9,13.18,21.34,40.6
"2009-06-22 01:15:30",996934,5.462,78.16,3.75,0.335,18.38,108.2965,20.52,21.51,40.11,0,110.9,13.18,21.34,40.2
"2009-06-22 01:16:00",996935,5.906,87.6,2.507,0.257,18.34,108.2968,20.52,21.5,36.79,0,110.9,13.18,21.34,49.6
"2009-06-22 01:16:30",996936,6.015,89.2,2.238,0.167,18.42,108.2968,20.52,21.48,35.43,0,110.9,13.18,21.34,51.2
"2009-06-22 01:17:00",996937,6.352,89.3,1.98,0.177,18.33,108.2962,20.52,21.49,34.86,0,110.9,13.18,21.34,51.3
"2009-06-22 01:17:30",996938,6.1,81.5,3.11,0.263,18.29,108.2957,20.52,21.5,37.55,0,110.9,13.18,21.34,43.5
"2009-06-22 01:18:00",996939,5.561,83.1,1.668,0.2,18.28,108.2951,20.52,21.5,38.12,0,110.9,13.18,21.34,45.1
"2009-06-22 01:18:30",996940,5.611,79.92,2.564,0.348,18.37,108.2954,20.52,21.49,37.65,0,110.9,13.18,21.34,41.9
"2009-06-22 01:19:00",996941,5.65,73.33,2.205,0.195,18.31,108.292,20.51,21.5,37.51,0,110.9,13.18,21.33,35.3
"2009-06-22 01:19:30",996942,5.608,75.95,1.547,0.125,18.34,108.2931,20.51,21.49,37.64,0,110.9,13.18,21.34,37.9
"2009-06-22 01:20:00",996943,6.182,78.09,1.818,0.455,18.55,108.2912,20.51,21.5,37.4,0,110.9,13.18,21.33,40.1
"2009-06-22 01:20:30",996944,6.521,71.4,3.93,0.448,18.38,108.2886,20.5,21.51,39.28,0,110.9,13.18,21.32,33.4
"2009-06-22 01:21:00",996945,5.657,66,2.575,0.261,18.26,108.2799,20.48,21.51,41.14,0,110.9,13.18,21.30,28.0
"2009-06-22 01:21:30",996946,5.11,70.38,5.814,0.522,18.46,108.2715,20.46,21.5,39.99,0,110.9,13.18,21.28,32.4
"2009-06-22 01:22:00",996947,5.479,74.54,1.861,0.151,18.47,108.2667,20.44,21.51,38.11,0,110.9,13.18,21.27,36.5
"2009-06-22 01:22:30",996948,5.553,72.45,1.143,0.211,18.27,108.2636,20.44,21.5,39.1,0,110.9,13.18,21.26,34.4
"2009-06-22 01:23:00",996949,5.37,72.53,1.836,0.149,18.32,108.2631,20.43,21.49,39.67,0,110.9,13.18,21.26,34.5
"2009-06-22 01:23:30",996950,5.538,74.74,1.864,0.193,18.3,108.2631,20.43,21.48,39.1,0,110.9,13.18,21.26,36.7
"2009-06-22 01:24:00",996951,5.441,70.89,2.841,0.147,18.25,108.2631,20.43,21.47,39.76,0,110.9,13.18,21.26,32.9
"2009-06-22 01:24:30",996952,5.344,64.92,2.109,0.104,18.22,108.2631,20.43,21.47,40.07,0,110.9,13.18,21.26,26.9
"2009-06-22 01:25:00",996953,5.109,65.58,3.117,0.136,18.15,108.2583,20.42,21.46,40.48,0,110.9,13.18,21.25,27.6
"2009-06-22 01:25:30",996954,4.96,65.62,1.382,0.099,18.29,108.2378,20.37,21.46,40.91,0,110.9,13.18,21.19,27.6
"2009-06-22 01:26:00",996955,4.864,68.36,1.929,0.135,18.41,108.2302,20.35,21.44,40.71,0,110.9,13.18,21.17,30.4
"2009-06-22 01:26:30",996956,5.226,73.86,3.921,0.291,18.62,108.2293,20.35,21.45,39.53,0,110.9,13.18,21.17,35.9
"2009-06-22 01:27:00",996957,5.187,76.18,1.546,0.073,18.64,108.2296,20.35,21.44,39.42,0,110.9,13.18,21.17,38.2
"2009-06-22 01:27:30",996958,5.381,78.64,1.649,0.113,18.56,108.2299,20.35,21.42,39.88,0,110.9,13.18,21.17,40.6
"2009-06-22 01:28:00",996959,5.64,80.9,1.49,0.158,18.64,108.2289,20.35,21.41,40.42,0,110.9,13.19,21.17,42.9
"2009-06-22 01:28:30",996960,5.5,82.6,1.44,0.229,18.56,108.2092,20.3,21.4,40.53,0,110.9,13.19,21.12,44.6
"2009-06-22 01:29:00",996961,6.387,86.4,1.824,0.173,18.38,108.1971,20.27,21.39,40.3,0,110.9,13.19,21.09,48.4
"2009-06-22 01:29:30",996962,5.997,86.7,2.947,0.48,18.28,108.199,20.27,21.38,40.31,0,110.9,13.19,21.09,48.7
"2009-06-22 01:30:00",996963,6.419,89.6,1.332,0.21,18.39,108.1972,20.27,21.35,39.09,0,110.9,13.19,21.09,51.6
"2009-06-22 01:30:30",996964,5.928,90.4,1.416,0.155,18.68,108.1761,20.21,21.34,37.14,0,110.9,13.19,21.03,52.4
"2009-06-22 01:31:00",996965,5.589,87.9,1.028,0.14,18.69,108.1762,20.21,21.32,36.6,0,110.9,13.19,21.03,49.9
"2009-06-22 01:31:30",996966,5.298,85.9,1.407,0.091,18.75,108.1795,20.22,21.3,36.33,0,110.9,13.19,21.04,47.9
"2009-06-22 01:32:00",996967,5.148,83.4,1.183,0.076,18.82,108.1835,20.23,21.28,36.1,0,110.9,13.19,21.05,45.4
"2009-06-22 01:32:30",996968,5.504,85.9,1.721,0.32,18.45,108.1868,20.24,21.26,36.79,0,110.9,13.19,21.06,47.9
"2009-06-22 01:33:00",996969,6.004,85.6,1.461,0.156,18.17,108.1874,20.24,21.26,39.48,0,110.9,13.19,21.06,47.6
"2009-06-22 01:33:30",996970,5.467,90.1,2.033,0.216,18.61,108.1863,20.24,21.26,38.6,0,110.9,13.19,21.06,52.1
"2009-06-22 01:34:00",996971,5.526,89.4,2.17,0.163,18.51,108.1844,20.23,21.25,36.95,0,110.9,13.19,21.06,51.4
"2009-06-22 01:34:30",996972,5.467,87.8,1.282,0.173,18.41,108.1828,20.23,21.25,37.98,0,110.9,13.19,21.05,49.8
"2009-06-22 01:35:00",996973,5.495,85,2.366,0.13,18.31,108.1777,20.22,21.23,39.53,0,110.9,13.19,21.04,47.0
"2009-06-22 01:35:30",996974,5.049,87.4,0.735,0.126,18.59,108.1733,20.2,21.25,37.37,0,110.9,13.19,21.03,49.4
"2009-06-22 01:36:00",996975,5.17,91.3,1.658,0.203,18.46,108.1734,20.2,21.24,37.58,0,110.9,13.19,21.03,53.3
"2009-06-22 01:36:30",996976,5.47,94.4,1.789,0.142,18.28,108.171,20.2,21.24,37.96,0,110.9,13.19,21.02,56.4
"2009-06-22 01:37:00",996977,5.337,94.4,2.606,0.09,18.35,108.1678,20.19,21.23,38.68,0,110.9,13.19,21.01,56.4
"2009-06-22 01:37:30",996978,5.074,97.8,1.714,0.085,18.47,108.1693,20.19,21.23,37.72,0,110.9,13.19,21.02,59.8
"2009-06-22 01:38:00",996979,4.868,98,1.612,0.131,18.73,108.1691,20.19,21.23,37.12,0,110.9,13.19,21.02,60.0
"2009-06-22 01:38:30",996980,4.859,98.8,1.289,0.143,18.85,108.1704,20.2,21.23,36.03,0,110.9,13.19,21.02,60.8
"2009-06-22 01:39:00",996981,5.307,98,1.609,0.066,18.52,108.1777,20.22,21.22,36.7,0,110.9,13.19,21.04,60.0
"2009-06-22 01:39:30",996982,5.383,98.1,1.648,0.105,18.44,108.1851,20.23,21.22,37.97,0,110.9,13.19,21.06,60.1
"2009-06-22 01:40:00",996983,5.349,96.5,1.436,0.125,18.4,108.1916,20.25,21.23,38.68,0,110.9,13.19,21.07,58.5
"2009-06-22 01:40:30",996984,5.358,94.9,1.582,0.076,18.45,108.195,20.26,21.24,38.9,0,110.9,13.19,21.08,56.9
"2009-06-22 01:41:00",996985,5.352,91.9,1.102,0.108,18.33,108.1978,20.27,21.24,39.6,0,110.9,13.19,21.09,53.9
"2009-06-22 01:41:30",996986,5.295,88.9,1.126,0.12,18.27,108.1984,20.27,21.25,40.15,0,110.9,13.19,21.09,50.9
"2009-06-22 01:42:00",996987,5.185,90.6,1.907,0.162,18.27,108.1984,20.27,21.24,40.74,0,110.9,13.19,21.09,52.6
"2009-06-22 01:42:30",996988,5.172,93.2,2.345,0.145,18.45,108.197,20.27,21.25,40.32,0,110.9,13.2,21.09,55.2
"2009-06-22 01:43:00",996989,4.981,94,1.528,0.079,18.5,108.1961,20.26,21.26,39.72,0,110.9,13.2,21.09,56.0
"2009-06-22 01:43:30",996990,5.074,92.9,1.534,0.159,18.4,108.1944,20.26,21.25,40.16,0,110.9,13.2,21.08,54.9
"2009-06-22 01:44:00",996991,5.173,90.6,1.795,0.178,18.47,108.1885,20.24,21.25,40.31,0,110.9,13.2,21.07,52.6
"2009-06-22 01:44:30",996992,4.88,89.4,2.292,0.144,18.45,108.1798,20.22,21.24,40.59,0,110.9,13.2,21.04,51.4
"2009-06-22 01:45:00",996993,4.93,89.4,1.867,0.117,18.37,108.1762,20.21,21.24,40.48,0,110.9,13.2,21.03,51.4
"2009-06-22 01:45:30",996994,4.754,94.9,3.026,0.084,18.56,108.1711,20.2,21.25,39.91,0,110.9,13.2,21.02,56.9
"2009-06-22 01:46:00",996995,4.752,98.5,1.005,0.068,18.6,108.1649,20.18,21.23,39.3,0,110.9,13.2,21.01,60.5
"2009-06-22 01:46:30",996996,4.819,97.2,1.408,0.087,18.59,108.1646,20.18,21.22,39.32,0,110.9,13.2,21.00,59.2
"2009-06-22 01:47:00",996997,4.745,98.3,1.542,0.091,18.54,108.1646,20.18,21.22,39.22,0,110.9,13.2,21.00,60.3
"2009-06-22 01:47:30",996998,4.587,97.3,1.117,0.071,18.47,108.1646,20.18,21.23,39.37,0,110.9,13.2,21.00,59.3
"2009-06-22 01:48:00",996999,4.751,100.3,1.481,0.102,18.63,108.1646,20.18,21.2,39.14,0,110.9,13.2,21.00,62.3
"2009-06-22 01:48:30",997000,4.632,99.3,1.277,0.076,18.59,108.1646,20.18,21.23,38.99,0,110.9,13.2,21.00,61.3
"2009-06-22 01:49:00",997001,4.54,93,3.992,0.153,18.36,108.1646,20.18,21.22,39.67,0,110.9,13.2,21.00,55.0
"2009-06-22 01:49:30",997002,4.431,84.6,3.316,0.208,18.18,108.1646,20.18,21.21,41.11,0,110.9,13.2,21.00,46.6